| time (UTC) | temp F | wind direction | speed MPH | gust MPH | rain 1hr in | rain 24hr in | rain mn in | humidity % | barometer mb |
| 20260506165235 | 65 | 22 | 2.0 | 9.0 | 0.00 | 0.00 | 0.00 | 66 | 1020.3 |
| 20260506164736 | 65 | 13 | 4.0 | 9.0 | 0.00 | 0.00 | 0.00 | 66 | 1020.3 |
| 20260506164235 | 65 | 43 | 3.0 | 10.0 | 0.00 | 0.00 | 0.00 | 67 | 1020.3 |
| 20260506163735 | 65 | 337 | 4.0 | 10.0 | 0.00 | 0.00 | 0.00 | 68 | 1020.3 |
| 20260506163235 | 64 | 332 | 2.0 | 11.0 | 0.00 | 0.00 | 0.00 | 68 | 1020.3 |
| 20260506162735 | 64 | 295 | 4.0 | 11.0 | 0.00 | 0.00 | 0.00 | 68 | 1020.3 |
| 20260506162235 | 64 | 322 | 4.0 | 11.0 | 0.00 | 0.00 | 0.00 | 69 | 1020.3 |
| 20260506161735 | 64 | 320 | 4.0 | 11.0 | 0.00 | 0.00 | 0.00 | 70 | 1020.3 |
| 20260506161235 | 63 | 312 | 6.0 | 11.0 | 0.00 | 0.00 | 0.00 | 70 | 1020.4 |
| 20260506160735 | 63 | 339 | 4.0 | 11.0 | 0.00 | 0.00 | 0.00 | 71 | 1020.4 |
| 20260506160235 | 63 | 316 | 4.0 | 9.0 | 0.00 | 0.00 | 0.00 | 72 | 1020.4 |
| 20260506155735 | 62 | 310 | 4.0 | 9.0 | 0.00 | 0.00 | 0.00 | 73 | 1020.5 |
| 20260506155235 | 62 | 346 | 5.0 | 10.0 | 0.00 | 0.00 | 0.00 | 73 | 1020.5 |
| 20260506154735 | 62 | 342 | 4.0 | 10.0 | 0.00 | 0.00 | 0.00 | 73 | 1020.6 |
| 20260506154235 | 61 | 318 | 5.0 | 11.0 | 0.00 | 0.00 | 0.00 | 74 | 1020.6 |
| 20260506153735 | 61 | 328 | 3.0 | 11.0 | 0.00 | 0.00 | 0.00 | 75 | 1020.6 |
| 20260506153235 | 61 | 332 | 3.0 | 11.0 | 0.00 | 0.00 | 0.00 | 75 | 1020.6 |
| 20260506152735 | 60 | 315 | 7.0 | 11.0 | 0.00 | 0.00 | 0.00 | 76 | 1020.6 |
| 20260506152235 | 60 | 338 | 5.0 | 10.0 | 0.00 | 0.00 | 0.00 | 77 | 1020.6 |
| 20260506151334 | 59 | 312 | 4.0 | 10.0 | 0.00 | 0.00 | 0.00 | 78 | 1020.6 |
| 20260506150835 | 58 | 317 | 4.0 | 10.0 | 0.00 | 0.00 | 0.00 | 79 | 1020.6 |
| 20260506150335 | 57 | 283 | 4.0 | 7.0 | 0.00 | 0.00 | 0.00 | 79 | 1020.6 |
| 20260506145834 | 57 | 290 | 3.0 | 8.0 | 0.00 | 0.00 | 0.00 | 80 | 1020.6 |
| 20260506145335 | 56 | 295 | 4.0 | 8.0 | 0.00 | 0.00 | 0.00 | 80 | 1020.6 |
| 20260506144335 | 55 | 258 | 2.0 | 5.0 | 0.00 | 0.00 | 0.00 | 80 | 1020.7 |
| 20260506143834 | 54 | 246 | 4.0 | 7.0 | 0.00 | 0.00 | 0.00 | 80 | 1020.7 |
| 20260506143335 | 54 | 244 | 4.0 | 7.0 | 0.00 | 0.00 | 0.00 | 81 | 1020.6 |
| 20260506142835 | 54 | 245 | 4.0 | 5.0 | 0.00 | 0.00 | 0.00 | 81 | 1020.5 |
| 20260506142334 | 53 | 242 | 3.0 | 5.0 | 0.00 | 0.00 | 0.00 | 81 | 1020.5 |
| 20260506141834 | 53 | 245 | 3.0 | 5.0 | 0.00 | 0.00 | 0.00 | 81 | 1020.4 |
| 20260506140835 | 52 | 244 | 4.0 | 6.0 | 0.00 | 0.00 | 0.00 | 81 | 1020.4 |
| 20260506140334 | 51 | 242 | 4.0 | 5.0 | 0.00 | 0.00 | 0.00 | 81 | 1020.4 |
| 20260506135834 | 51 | 240 | 3.0 | 5.0 | 0.00 | 0.00 | 0.00 | 81 | 1020.3 |
| 20260506135335 | 51 | 246 | 3.0 | 5.0 | 0.00 | 0.00 | 0.00 | 81 | 1020.3 |
| 20260506134834 | 50 | 239 | 2.0 | 5.0 | 0.00 | 0.00 | 0.00 | 81 | 1020.2 |
| 20260506134334 | 50 | 234 | 3.0 | 5.0 | 0.00 | 0.00 | 0.00 | 81 | 1020.2 |
| 20260506133835 | 50 | 236 | 3.0 | 4.0 | 0.00 | 0.00 | 0.00 | 81 | 1020.1 |
| 20260506133334 | 49 | 242 | 2.0 | 3.0 | 0.00 | 0.00 | 0.00 | 81 | 1020.1 |
| 20260506132835 | 49 | 245 | 2.0 | 3.0 | 0.00 | 0.00 | 0.00 | 81 | 1020.0 |
| 20260506132039 | 49 | 234 | 2.0 | 3.0 | 0.00 | 0.00 | 0.00 | 81 | 1019.9 |
| 20260506131539 | 49 | 229 | 2.0 | 4.0 | 0.00 | 0.00 | 0.00 | 80 | 1019.9 |
| 20260506131040 | 49 | 229 | 2.0 | 4.0 | 0.00 | 0.00 | 0.00 | 80 | 1019.8 |
| 20260506125747 | 50 | 240 | 3.0 | 5.0 | 0.00 | 0.00 | 0.00 | 80 | 1019.7 |
| 20260506125247 | 50 | 237 | 3.0 | 5.0 | 0.00 | 0.00 | 0.00 | 80 | 1019.6 |
| 20260506124746 | 50 | 234 | 3.0 | 5.0 | 0.00 | 0.00 | 0.00 | 80 | 1019.6 |
| 20260506124247 | 50 | 235 | 3.0 | 5.0 | 0.00 | 0.00 | 0.00 | 80 | 1019.6 |
| 20260506123747 | 50 | 249 | 2.0 | 4.0 | 0.00 | 0.00 | 0.00 | 80 | 1019.6 |
| 20260506123246 | 50 | 256 | 1.0 | 3.0 | 0.00 | 0.00 | 0.00 | 80 | 1019.5 |
| 20260506122746 | 50 | 257 | 1.0 | 3.0 | 0.00 | 0.00 | 0.00 | 80 | 1019.5 |
| 20260506122247 | 50 | 258 | 2.0 | 3.0 | 0.00 | 0.00 | 0.00 | 79 | 1019.4 |
| 20260506121540 | 50 | 249 | 2.0 | 3.0 | 0.00 | 0.00 | 0.00 | 79 | 1019.3 |
| 20260506121040 | 50 | 247 | 2.0 | 3.0 | 0.00 | 0.00 | 0.00 | 79 | 1019.4 |
| 20260506120540 | 50 | 240 | 1.0 | 3.0 | 0.00 | 0.00 | 0.00 | 79 | 1019.4 |
| 20260506120040 | 50 | 243 | 2.0 | 3.0 | 0.00 | 0.00 | 0.00 | 79 | 1019.3 |
| 20260506115540 | 50 | 242 | 1.0 | 4.0 | 0.00 | 0.00 | 0.00 | 79 | 1019.3 |
| 20260506115042 | 50 | 234 | 3.0 | 4.0 | 0.00 | 0.00 | 0.00 | 79 | 1019.3 |
| 20260506114540 | 50 | 238 | 2.0 | 4.0 | 0.00 | 0.00 | 0.00 | 79 | 1019.2 |
| 20260506113847 | 50 | 239 | 2.0 | 4.0 | 0.00 | 0.00 | 0.00 | 79 | 1019.1 |
| 20260506113347 | 50 | 236 | 1.0 | 4.0 | 0.00 | 0.00 | 0.00 | 79 | 1019.2 |
| 20260506112848 | 50 | 231 | 2.0 | 4.0 | 0.00 | 0.00 | 0.00 | 79 | 1019.0 |
| 20260506112348 | 50 | 229 | 2.0 | 3.0 | 0.00 | 0.00 | 0.00 | 79 | 1019.0 |
| 20260506111424 | 50 | 236 | 2.0 | 4.0 | 0.00 | 0.00 | 0.00 | 79 | 1018.9 |
| 20260506110924 | 50 | 236 | 3.0 | 4.0 | 0.00 | 0.00 | 0.00 | 79 | 1018.9 |
| 20260506110425 | 50 | 238 | 2.0 | 4.0 | 0.00 | 0.00 | 0.00 | 79 | 1018.8 |
| 20260506105241 | 50 | 229 | 2.0 | 4.0 | 0.00 | 0.00 | 0.00 | 79 | 1018.8 |
| 20260506104743 | 51 | 229 | 3.0 | 5.0 | 0.00 | 0.00 | 0.00 | 78 | 1018.8 |
| 20260506104241 | 51 | 235 | 3.0 | 5.0 | 0.00 | 0.00 | 0.00 | 78 | 1018.8 |
| 20260506103741 | 51 | 232 | 3.0 | 5.0 | 0.00 | 0.00 | 0.00 | 78 | 1018.7 |
| 20260506103241 | 51 | 238 | 3.0 | 6.0 | 0.00 | 0.00 | 0.00 | 78 | 1018.7 |
| 20260506102742 | 51 | 243 | 4.0 | 6.0 | 0.00 | 0.00 | 0.00 | 78 | 1018.6 |
| 20260506102242 | 51 | 248 | 4.0 | 6.0 | 0.00 | 0.00 | 0.00 | 78 | 1018.6 |
| 20260506101741 | 51 | 246 | 3.0 | 5.0 | 0.00 | 0.00 | 0.00 | 78 | 1018.6 |
| 20260506101242 | 51 | 255 | 1.0 | 4.0 | 0.00 | 0.00 | 0.00 | 77 | 1018.5 |
| 20260506100742 | 51 | 237 | 1.0 | 5.0 | 0.00 | 0.00 | 0.00 | 77 | 1018.6 |
| 20260506100241 | 51 | 235 | 2.0 | 5.0 | 0.00 | 0.00 | 0.00 | 77 | 1018.5 |
| 20260506095741 | 52 | 235 | 3.0 | 5.0 | 0.00 | 0.00 | 0.00 | 76 | 1018.6 |
| 20260506095243 | 52 | 233 | 3.0 | 5.0 | 0.00 | 0.00 | 0.00 | 76 | 1018.6 |
| 20260506094742 | 52 | 247 | 2.0 | 5.0 | 0.00 | 0.00 | 0.00 | 76 | 1018.5 |
| 20260506094241 | 52 | 241 | 3.0 | 6.0 | 0.00 | 0.00 | 0.00 | 76 | 1018.5 |
| 20260506093742 | 52 | 239 | 4.0 | 6.0 | 0.00 | 0.00 | 0.00 | 77 | 1018.6 |
| 20260506093242 | 52 | 246 | 3.0 | 4.0 | 0.00 | 0.00 | 0.00 | 77 | 1018.5 |
| 20260506092741 | 52 | 255 | 2.0 | 4.0 | 0.00 | 0.00 | 0.00 | 76 | 1018.5 |
| 20260506092241 | 53 | 250 | 2.0 | 5.0 | 0.00 | 0.00 | 0.00 | 76 | 1018.5 |
| 20260506091741 | 53 | 245 | 3.0 | 5.0 | 0.00 | 0.00 | 0.00 | 76 | 1018.5 |
| 20260506091242 | 53 | 246 | 3.0 | 4.0 | 0.00 | 0.00 | 0.00 | 77 | 1018.5 |
| 20260506090741 | 54 | 252 | 3.0 | 4.0 | 0.00 | 0.00 | 0.00 | 78 | 1018.5 |
| 20260506090242 | 54 | 264 | 3.0 | 4.0 | 0.00 | 0.00 | 0.00 | 78 | 1018.5 |
| 20260506085648 | 54 | 262 | 2.0 | 5.0 | 0.00 | 0.00 | 0.00 | 77 | 1018.5 |
| 20260506085148 | 54 | 252 | 3.0 | 5.0 | 0.00 | 0.00 | 0.00 | 77 | 1018.6 |
| 20260506084648 | 54 | 259 | 3.0 | 4.0 | 0.00 | 0.00 | 0.00 | 77 | 1018.6 |
| 20260506084148 | 54 | 274 | 3.0 | 4.0 | 0.00 | 0.00 | 0.00 | 77 | 1018.6 |
| 20260506083631 | 55 | 283 | 2.0 | 4.0 | 0.00 | 0.00 | 0.00 | 77 | 1018.6 |
| 20260506083131 | 55 | 288 | 3.0 | 4.0 | 0.00 | 0.00 | 0.00 | 77 | 1018.5 |
| 20260506082632 | 55 | 295 | 3.0 | 6.0 | 0.00 | 0.00 | 0.00 | 77 | 1018.5 |
| 20260506082132 | 55 | 293 | 3.0 | 6.0 | 0.00 | 0.00 | 0.00 | 77 | 1018.5 |
| 20260506081131 | 55 | 292 | 2.0 | 4.0 | 0.00 | 0.00 | 0.00 | 76 | 1018.5 |
| 20260506080631 | 55 | 294 | 2.0 | 4.0 | 0.00 | 0.00 | 0.00 | 75 | 1018.3 |
| 20260506080131 | 55 | 298 | 3.0 | 4.0 | 0.00 | 0.00 | 0.00 | 75 | 1018.3 |
| 20260506073131 | 56 | 318 | 3.0 | 5.0 | 0.00 | 0.00 | 0.00 | 74 | 1018.2 |
| 20260506072631 | 56 | 324 | 3.0 | 5.0 | 0.00 | 0.00 | 0.00 | 75 | 1018.1 |
| 20260506072132 | 56 | 323 | 3.0 | 5.0 | 0.00 | 0.00 | 0.00 | 74 | 1018.1 |
| 20260506071132 | 57 | 325 | 3.0 | 6.0 | 0.00 | 0.00 | 0.00 | 75 | 1018.0 |
| 20260506070631 | 57 | 333 | 4.0 | 6.0 | 0.00 | 0.00 | 0.00 | 74 | 1017.9 |
| 20260506070132 | 57 | 339 | 3.0 | 8.0 | 0.00 | 0.00 | 0.00 | 74 | 1017.8 |
| 20260506062404 | 56 | 330 | 4.0 | 6.0 | 0.00 | 0.00 | 0.00 | 72 | 1017.7 |
| 20260506061905 | 56 | 326 | 4.0 | 6.0 | 0.00 | 0.00 | 0.00 | 71 | 1017.6 |
| 20260506061404 | 56 | 331 | 2.0 | 5.0 | 0.00 | 0.00 | 0.00 | 71 | 1017.6 |
| 20260506060405 | 56 | 321 | 2.0 | 4.0 | 0.00 | 0.00 | 0.00 | 70 | 1017.6 |
| 20260506051404 | 57 | 355 | 2.0 | 3.0 | 0.00 | 0.00 | 0.00 | 69 | 1017.1 |
| 20260506050906 | 58 | 355 | 1.0 | 3.0 | 0.00 | 0.00 | 0.00 | 68 | 1017.0 |
| 20260506050405 | 58 | 355 | 1.0 | 3.0 | 0.00 | 0.00 | 0.00 | 68 | 1016.9 |
| 20260506044904 | 58 | 355 | 2.0 | 4.0 | 0.00 | 0.00 | 0.00 | 66 | 1016.7 |
| 20260506044404 | 59 | 355 | 2.0 | 4.0 | 0.00 | 0.00 | 0.00 | 66 | 1016.6 |
| 20260506043906 | 59 | 355 | 2.0 | 3.0 | 0.00 | 0.00 | 0.00 | 66 | 1016.6 |
| 20260506043404 | 59 | 355 | 1.0 | 3.0 | 0.00 | 0.00 | 0.00 | 65 | 1016.6 |
| 20260506042905 | 59 | 355 | 1.0 | 2.0 | 0.00 | 0.00 | 0.00 | 65 | 1016.5 |
| 20260506042404 | 59 | 355 | 1.0 | 3.0 | 0.00 | 0.00 | 0.00 | 64 | 1016.4 |
| 20260506041905 | 60 | 355 | 1.0 | 3.0 | 0.00 | 0.00 | 0.00 | 64 | 1016.3 |
| 20260506041405 | 60 | 355 | 1.0 | 2.0 | 0.00 | 0.00 | 0.00 | 63 | 1016.2 |
| 20260506040907 | 60 | 355 | 1.0 | 2.0 | 0.00 | 0.00 | 0.00 | 64 | 1016.2 |
| 20260506040405 | 60 | 355 | 1.0 | 3.0 | 0.00 | 0.00 | 0.00 | 64 | 1016.1 |
| 20260506035905 | 61 | 355 | 1.0 | 3.0 | 0.00 | 0.00 | 0.00 | 64 | 1016.1 |
| 20260506035405 | 61 | 355 | 1.0 | 3.0 | 0.00 | 0.00 | 0.00 | 63 | 1016.0 |
| 20260506034905 | 61 | 355 | 1.0 | 3.0 | 0.00 | 0.00 | 0.00 | 63 | 1016.0 |
| 20260506034405 | 61 | 355 | 2.0 | 3.0 | 0.00 | 0.00 | 0.00 | 63 | 1015.9 |
| 20260506033905 | 61 | 355 | 1.0 | 4.0 | 0.00 | 0.00 | 0.00 | 62 | 1015.9 |
| 20260506033404 | 62 | 355 | 2.0 | 4.0 | 0.00 | 0.00 | 0.00 | 61 | 1015.8 |
| 20260506032906 | 62 | 355 | 3.0 | 4.0 | 0.00 | 0.00 | 0.00 | 60 | 1015.8 |
| 20260506032405 | 63 | 355 | 2.0 | 4.0 | 0.00 | 0.00 | 0.00 | 60 | 1015.7 |
| 20260506031904 | 63 | 355 | 2.0 | 4.0 | 0.00 | 0.00 | 0.00 | 59 | 1015.6 |
| 20260506031404 | 63 | 355 | 2.0 | 4.0 | 0.00 | 0.00 | 0.00 | 59 | 1015.5 |
| 20260506030905 | 64 | 355 | 2.0 | 4.0 | 0.00 | 0.00 | 0.00 | 59 | 1015.4 |
| 20260506030405 | 64 | 354 | 2.0 | 5.0 | 0.00 | 0.00 | 0.00 | 58 | 1015.4 |
| 20260506025404 | 65 | 345 | 3.0 | 8.0 | 0.00 | 0.00 | 0.00 | 57 | 1015.2 |
| 20260506024904 | 65 | 337 | 3.0 | 6.0 | 0.00 | 0.00 | 0.00 | 57 | 1015.1 |
| 20260506024405 | 65 | 355 | 2.0 | 9.0 | 0.00 | 0.00 | 0.00 | 57 | 1015.1 |
| 20260506023906 | 65 | 10 | 4.0 | 9.0 | 0.00 | 0.00 | 0.00 | 57 | 1015.0 |
| 20260506023405 | 66 | 14 | 4.0 | 8.0 | 0.00 | 0.00 | 0.00 | 57 | 1015.0 |
| 20260506022848 | 66 | 14 | 4.0 | 9.0 | 0.00 | 0.00 | 0.00 | 56 | 1014.9 |
| 20260506022347 | 66 | 14 | 4.0 | 9.0 | 0.00 | 0.00 | 0.00 | 56 | 1014.9 |
| 20260506021848 | 66 | 26 | 3.0 | 8.0 | 0.00 | 0.00 | 0.00 | 56 | 1014.8 |
| 20260506021348 | 66 | 31 | 3.0 | 9.0 | 0.00 | 0.00 | 0.00 | 55 | 1014.7 |
| 20260506020848 | 66 | 12 | 5.0 | 9.0 | 0.00 | 0.00 | 0.00 | 56 | 1014.8 |
| 20260506020348 | 66 | 28 | 4.0 | 9.0 | 0.00 | 0.00 | 0.00 | 56 | 1014.8 |
| 20260506015847 | 66 | 20 | 4.0 | 9.0 | 0.00 | 0.00 | 0.00 | 56 | 1014.7 |
| 20260506015347 | 66 | 15 | 4.0 | 9.0 | 0.00 | 0.00 | 0.00 | 55 | 1014.7 |
| 20260506014847 | 67 | 20 | 3.0 | 7.0 | 0.00 | 0.00 | 0.00 | 54 | 1014.7 |
| 20260506014348 | 67 | 345 | 2.0 | 6.0 | 0.00 | 0.00 | 0.00 | 52 | 1014.6 |
| 20260506013848 | 67 | 359 | 2.0 | 9.0 | 0.00 | 0.00 | 0.00 | 52 | 1014.6 |
| 20260506013348 | 67 | 337 | 5.0 | 9.0 | 0.00 | 0.00 | 0.00 | 53 | 1014.6 |
| 20260506012848 | 67 | 26 | 4.0 | 9.0 | 0.00 | 0.00 | 0.00 | 53 | 1014.6 |
| 20260506012349 | 68 | 18 | 4.0 | 10.0 | 0.00 | 0.00 | 0.00 | 52 | 1014.6 |
| 20260506011847 | 68 | 28 | 4.0 | 10.0 | 0.00 | 0.00 | 0.00 | 52 | 1014.5 |
| 20260506011114 | 68 | 34 | 3.0 | 10.0 | 0.00 | 0.00 | 0.00 | 52 | 1014.5 |
| 20260506010613 | 68 | 40 | 4.0 | 9.0 | 0.00 | 0.00 | 0.00 | 52 | 1014.5 |
| 20260506010113 | 68 | 11 | 5.0 | 10.0 | 0.00 | 0.00 | 0.00 | 50 | 1014.6 |
| 20260506005613 | 68 | 20 | 5.0 | 10.0 | 0.00 | 0.00 | 0.00 | 51 | 1014.5 |
| 20260506005113 | 68 | 27 | 3.0 | 8.0 | 0.00 | 0.00 | 0.00 | 51 | 1014.5 |
| 20260506004613 | 69 | 31 | 3.0 | 8.0 | 0.00 | 0.00 | 0.00 | 51 | 1014.5 |
| 20260506004113 | 69 | 37 | 4.0 | 8.0 | 0.00 | 0.00 | 0.00 | 51 | 1014.5 |
| 20260506003613 | 69 | 35 | 2.0 | 8.0 | 0.00 | 0.00 | 0.00 | 50 | 1014.5 |
| 20260506003008 | 70 | 4 | 5.0 | 9.0 | 0.00 | 0.00 | 0.00 | 49 | 1014.5 |
| 20260506002508 | 69 | 342 | 3.0 | 9.0 | 0.00 | 0.00 | 0.00 | 49 | 1014.5 |
| 20260506002008 | 69 | 345 | 3.0 | 9.0 | 0.00 | 0.00 | 0.00 | 50 | 1014.5 |
| 20260506001508 | 69 | 48 | 1.0 | 4.0 | 0.00 | 0.00 | 0.00 | 51 | 1014.5 |
| 20260506000848 | 69 | 20 | 3.0 | 9.0 | 0.00 | 0.00 | 0.00 | 50 | 1014.6 |
| 20260506000348 | 69 | 24 | 3.0 | 9.0 | 0.00 | 0.00 | 0.00 | 50 | 1014.5 |
| 20260505235848 | 70 | 32 | 3.0 | 10.0 | 0.00 | 0.00 | 0.00 | 49 | 1014.4 |
| 20260505235348 | 70 | 335 | 6.0 | 10.0 | 0.00 | 0.00 | 0.00 | 49 | 1014.4 |
| 20260505234849 | 69 | 36 | 3.0 | 10.0 | 0.00 | 0.00 | 0.00 | 49 | 1014.4 |
| 20260505234348 | 69 | 345 | 4.0 | 10.0 | 0.00 | 0.00 | 0.00 | 50 | 1014.5 |
| 20260505233848 | 69 | 353 | 4.0 | 10.0 | 0.00 | 0.00 | 0.00 | 49 | 1014.4 |
| 20260505233350 | 69 | 337 | 3.0 | 9.0 | 0.00 | 0.00 | 0.00 | 48 | 1014.5 |
| 20260505232849 | 69 | 24 | 2.0 | 7.0 | 0.00 | 0.00 | 0.00 | 49 | 1014.5 |
| 20260505232349 | 70 | 22 | 3.0 | 9.0 | 0.00 | 0.00 | 0.00 | 48 | 1014.5 |
| 20260505231849 | 69 | 345 | 3.0 | 9.0 | 0.00 | 0.00 | 0.00 | 48 | 1014.5 |
| 20260505231048 | 70 | 22 | 2.0 | 8.0 | 0.00 | 0.00 | 0.00 | 48 | 1014.6 |
| 20260505230548 | 70 | 360 | 3.0 | 11.0 | 0.00 | 0.00 | 0.00 | 47 | 1014.6 |
| 20260505230048 | 70 | 308 | 5.0 | 11.0 | 0.00 | 0.00 | 0.00 | 47 | 1014.6 |
| 20260505225548 | 70 | 341 | 1.0 | 7.0 | 0.00 | 0.00 | 0.00 | 48 | 1014.6 |
| 20260505225049 | 70 | 242 | 3.0 | 8.0 | 0.00 | 0.00 | 0.00 | 48 | 1014.7 |
| 20260505224548 | 70 | 311 | 4.0 | 8.0 | 0.00 | 0.00 | 0.00 | 47 | 1014.6 |
| 20260505224048 | 70 | 278 | 4.0 | 9.0 | 0.00 | 0.00 | 0.00 | 46 | 1014.7 |
| 20260505223548 | 70 | 292 | 5.0 | 9.0 | 0.00 | 0.00 | 0.00 | 47 | 1014.7 |
| 20260505223048 | 70 | 324 | 1.0 | 8.0 | 0.00 | 0.00 | 0.00 | 49 | 1014.8 |
| 20260505222548 | 70 | 24 | 2.0 | 6.0 | 0.00 | 0.00 | 0.00 | 47 | 1014.8 |
| 20260505221611 | 70 | 274 | 5.0 | 10.0 | 0.00 | 0.00 | 0.00 | 46 | 1014.9 |
| 20260505221111 | 70 | 316 | 4.0 | 9.0 | 0.00 | 0.00 | 0.00 | 48 | 1014.8 |
| 20260505220612 | 70 | 279 | 1.0 | 10.0 | 0.00 | 0.00 | 0.00 | 46 | 1014.9 |
| 20260505220111 | 70 | 307 | 4.0 | 10.0 | 0.00 | 0.00 | 0.00 | 47 | 1014.9 |
| 20260505215611 | 70 | 35 | 2.0 | 10.0 | 0.00 | 0.00 | 0.00 | 48 | 1014.9 |
| 20260505215112 | 70 | 298 | 5.0 | 10.0 | 0.00 | 0.00 | 0.00 | 47 | 1015.0 |
| 20260505214612 | 69 | 337 | 6.0 | 10.0 | 0.00 | 0.00 | 0.00 | 51 | 1015.0 |
| 20260505214111 | 69 | 25 | 3.0 | 8.0 | 0.00 | 0.00 | 0.00 | 51 | 1015.1 |
| 20260505213611 | 69 | 326 | 1.0 | 11.0 | 0.00 | 0.00 | 0.00 | 51 | 1015.0 |
| 20260505213111 | 68 | 334 | 3.0 | 11.0 | 0.00 | 0.00 | 0.00 | 53 | 1015.1 |
| 20260505212320 | 68 | 44 | 2.0 | 10.0 | 0.00 | 0.00 | 0.00 | 54 | 1015.1 |
| 20260505211820 | 69 | 4 | 5.0 | 10.0 | 0.00 | 0.00 | 0.00 | 53 | 1015.2 |
| 20260505211320 | 69 | 15 | 4.0 | 11.0 | 0.00 | 0.00 | 0.00 | 53 | 1015.1 |
| 20260505210821 | 70 | 20 | 1.0 | 11.0 | 0.00 | 0.00 | 0.00 | 51 | 1015.2 |
| 20260505210321 | 70 | 350 | 6.0 | 11.0 | 0.00 | 0.00 | 0.00 | 52 | 1015.2 |
| 20260505205820 | 70 | 329 | 4.0 | 9.0 | 0.00 | 0.00 | 0.00 | 52 | 1015.3 |
| 20260505205320 | 70 | 279 | 4.0 | 9.0 | 0.00 | 0.00 | 0.00 | 52 | 1015.3 |
| 20260505204821 | 69 | 345 | 1.0 | 11.0 | 0.00 | 0.00 | 0.00 | 53 | 1015.2 |
| 20260505204320 | 69 | 346 | 4.0 | 11.0 | 0.00 | 0.00 | 0.00 | 54 | 1015.3 |
| 20260505203821 | 69 | 289 | 4.0 | 8.0 | 0.00 | 0.00 | 0.00 | 54 | 1015.3 |
| 20260505203320 | 68 | 335 | 2.0 | 8.0 | 0.00 | 0.00 | 0.00 | 54 | 1015.3 |
| 20260505202821 | 68 | 230 | 1.0 | 6.0 | 0.00 | 0.00 | 0.00 | 56 | 1015.2 |
| 20260505202320 | 68 | 314 | 1.0 | 8.0 | 0.00 | 0.00 | 0.00 | 55 | 1015.2 |
| 20260505201822 | 67 | 312 | 2.0 | 8.0 | 0.00 | 0.00 | 0.00 | 56 | 1015.2 |
| 20260505201320 | 67 | 324 | 4.0 | 6.0 | 0.00 | 0.00 | 0.00 | 57 | 1015.2 |
| 20260505200820 | 67 | 84 | 1.0 | 5.0 | 0.00 | 0.00 | 0.00 | 57 | 1015.2 |
| 20260505200320 | 67 | 93 | 1.0 | 5.0 | 0.00 | 0.00 | 0.00 | 58 | 1015.3 |
| 20260505195820 | 67 | 55 | 1.0 | 8.0 | 0.00 | 0.00 | 0.00 | 58 | 1015.3 |
| 20260505195320 | 67 | 23 | 3.0 | 8.0 | 0.00 | 0.00 | 0.00 | 58 | 1015.5 |
| 20260505194820 | 67 | 318 | 3.0 | 8.0 | 0.00 | 0.00 | 0.00 | 57 | 1015.6 |
| 20260505194320 | 67 | 344 | 3.0 | 8.0 | 0.00 | 0.00 | 0.00 | 58 | 1015.5 |
| 20260505193820 | 67 | 0 | 0.0 | 5.0 | 0.00 | 0.00 | 0.00 | 60 | 1015.6 |
| 20260505193320 | 66 | 0 | 0.0 | 7.0 | 0.00 | 0.00 | 0.00 | 59 | 1015.6 |
| 20260505192820 | 66 | 0 | 0.0 | 7.0 | 0.00 | 0.00 | 0.00 | 60 | 1015.7 |
| 20260505191825 | 65 | 0 | 0.0 | 8.0 | 0.00 | 0.00 | 0.00 | 61 | 1015.8 |
| 20260505191325 | 65 | 303 | 3.0 | 8.0 | 0.00 | 0.00 | 0.00 | 62 | 1015.8 |
| 20260505190825 | 65 | 0 | 0.0 | 7.0 | 0.00 | 0.00 | 0.00 | 63 | 1015.8 |
| 20260505190326 | 65 | 0 | 0.0 | 8.0 | 0.00 | 0.00 | 0.00 | 62 | 1015.8 |
| 20260505185825 | 65 | 309 | 4.0 | 8.0 | 0.00 | 0.00 | 0.00 | 62 | 1015.8 |
| 20260505185325 | 65 | 335 | 4.0 | 8.0 | 0.00 | 0.00 | 0.00 | 63 | 1015.8 |
| 20260505184825 | 64 | 321 | 3.0 | 6.0 | 0.00 | 0.00 | 0.00 | 64 | 1015.7 |
| 20260505184325 | 64 | 313 | 2.0 | 5.0 | 0.00 | 0.00 | 0.00 | 67 | 1015.8 |
| 20260505183825 | 63 | 0 | 0.0 | 4.0 | 0.00 | 0.00 | 0.00 | 67 | 1015.7 |
| 20260505183326 | 63 | 131 | 2.0 | 5.0 | 0.00 | 0.00 | 0.00 | 68 | 1015.6 |
| 20260505182825 | 63 | 119 | 3.0 | 5.0 | 0.00 | 0.00 | 0.00 | 66 | 1015.7 |
| 20260505182325 | 64 | 80 | 1.0 | 4.0 | 0.00 | 0.00 | 0.00 | 67 | 1015.7 |
| 20260505181825 | 64 | 0 | 0.0 | 3.0 | 0.00 | 0.00 | 0.00 | 65 | 1015.8 |
| 20260505181043 | 63 | 270 | 3.0 | 6.0 | 0.00 | 0.00 | 0.00 | 65 | 1015.7 |
| 20260505180542 | 63 | 314 | 2.0 | 6.0 | 0.00 | 0.00 | 0.00 | 66 | 1015.7 |
| 20260505180042 | 63 | 303 | 2.0 | 5.0 | 0.00 | 0.00 | 0.00 | 66 | 1015.7 |
| 20260505175543 | 62 | 21 | 1.0 | 5.0 | 0.00 | 0.00 | 0.00 | 67 | 1015.6 |
| 20260505175043 | 62 | 11 | 1.0 | 5.0 | 0.00 | 0.00 | 0.00 | 67 | 1015.8 |
| 20260505174542 | 62 | 5 | 2.0 | 4.0 | 0.00 | 0.00 | 0.00 | 68 | 1015.8 |
| 20260505174043 | 62 | 0 | 0.0 | 6.0 | 0.00 | 0.00 | 0.00 | 68 | 1015.7 |
| 20260505173543 | 62 | 329 | 2.0 | 7.0 | 0.00 | 0.00 | 0.00 | 68 | 1015.6 |
| 20260505173044 | 62 | 325 | 3.0 | 7.0 | 0.00 | 0.00 | 0.00 | 69 | 1015.6 |
| 20260505172543 | 62 | 0 | 0.0 | 6.0 | 0.00 | 0.00 | 0.00 | 70 | 1015.6 |
| 20260505172042 | 61 | 316 | 2.0 | 6.0 | 0.00 | 0.00 | 0.00 | 71 | 1015.6 |
| 20260505171544 | 61 | 0 | 0.0 | 4.0 | 0.00 | 0.00 | 0.00 | 71 | 1015.4 |
| 20260505171042 | 61 | 338 | 3.0 | 4.0 | 0.00 | 0.00 | 0.00 | 71 | 1015.4 |
| 20260505170543 | 61 | 12 | 2.0 | 6.0 | 0.00 | 0.00 | 0.00 | 72 | 1015.4 |
| 20260505170042 | 60 | 333 | 1.0 | 6.0 | 0.00 | 0.00 | 0.00 | 73 | 1015.4 |